Location: *
(42.3442°N, 9.2072°E)
Time: 01:33:29
(UTC+00:00)

SJ-6B - Pass Details

Date: 09 April 2020
Orbit: 509 x 582 km, 97.6° (Epoch: 29 May)

Event Time Altitude Azimuth Distance (km) Brightness Sun altitude
Exits shadow 18:39:23 - 146° (SE) 2,360 5.6 -8.1°
Reaches altitude 10° 18:40:34 10° 142° (SE) 1,892 5.0 -8.3°
Maximum altitude 18:44:26 41° 72° (ENE) 854 3.4 -9.0°
Drops below altitude 10° 18:48:19 10° 2° (N) 1,909 5.8 -9.7°
Sets 18:50:34 0° 355° (N) 2,810 6.8 -10.1°
